Chihuahua, Mexico

1:22 AM MDT on September 21, 2017 (GMT -0600)
Gen Div P A Roberto Fierro

Weather History for MMCU - March, 2013

Change the Weather History Date:

Tuesday, March 5, 2013

  Actual Average Record
Temperature  
Mean Temperature 62 °F -  
Max Temperature 70 °F 73 °F 95 °F (2016)
Min Temperature 53 °F 38 °F 24 °F (2002)
Degree Days  
Heating Degree Days 4    
Growing Degree Days 12 (Base 50)    
Moisture  
Dew Point 25 °F    
Average Humidity 23    
Maximum Humidity 34    
Minimum Humidity 9    
Precipitation  
Precipitation 0.00 in - - ()
Sea Level Pressure  
Sea Level Pressure 30.09 in    
Wind  
Wind Speed 7 mph ()    
Max Wind Speed 30 mph    
Max Gust Speed 29 mph    
Visibility 7.9 miles    
Events      
Averages and records for this station are not official NWS values.
T = Trace of Precipitation, MM = Missing Value Source: Averaged Metar Reports

Daily Weather History Graph

Daily Weather History Graph

Search for Another Location

Airport or City:

Trip Planner

Search our weather history database for the weather conditions in past years. The results will help you decide how hot, cold, wet, or windy it might be!

Date:

Astronomy

Mar. 05, 2013 Rise Set
Actual Time 6:24 AM MST 6:06 PM MST
Civil Twilight 6:00 AM MST 6:30 PM MST
Nautical Twilight 5:33 AM MST 6:57 PM MST
Astronomical Twilight 5:05 AM MST 7:24 PM MST
Moon 1:18 AM MST (3/5) 12:09 PM MST (3/5)
Length of Visible Light 12h 29m
Length of Day
11h 42m
Last Quarter, 40% of the Moon is Illuminated
Mar 5
Last Quarter
Mar 11
New
Mar 19
First Quarter
Mar 27
Full
Apr 2
Last Quarter

Hourly Weather History & Observations

Time (MST) Temp. Dew Point Humidity Pressure Visibility Wind Dir Wind Speed Gust Speed Precip Events Conditions
1:55 AM 59 °F 16 °F 9% 29.80 in 1 mi West 8.9 mph - -  
4:50 AM 54 °F 25 °F 20% 29.92 in 1 mi Calm Calm - -   Mostly Cloudy
5:40 AM 48.2 °F 21.2 °F 34% 30.07 in 10.0 mi SW 3.5 mph - N/A   Mostly Cloudy
6:40 AM 48.2 °F 17.6 °F 30% 30.28 in 10.0 mi SSE 6.9 mph - N/A   Overcast
7:40 AM 51.8 °F 19.4 °F 28% 30.09 in 10.0 mi Calm Calm - N/A   Mostly Cloudy
7:45 AM 58 °F 27 °F 19% 30.03 in 6 mi WNW 2.2 mph - -   Partly Cloudy
8:40 AM 57.2 °F 21.2 °F 25% 30.31 in 10.0 mi Calm Calm - N/A   Mostly Cloudy
9:40 AM 62.6 °F 23.0 °F 22% 30.30 in 10.0 mi Calm Calm - N/A   Mostly Cloudy
10:40 AM 64.4 °F 23.0 °F 21% 30.09 in 10.0 mi ESE 5.8 mph - N/A   Mostly Cloudy
10:45 AM 67 °F 28 °F 13% 30.03 in 6 mi ENE 4.5 mph - -   Scattered Clouds
11:40 AM 66.2 °F 24.8 °F 21% 30.28 in 10.0 mi NE 8.1 mph - N/A   Mostly Cloudy
12:40 PM 69.8 °F 26.6 °F 20% 30.24 in 10.0 mi East 19.6 mph - N/A   Mostly Cloudy
1:40 PM 70 °F 33 °F 15% 29.93 in 6 mi ENE 6.7 mph - -   Partly Cloudy
1:40 PM 69.8 °F 28.4 °F 21% 30.00 in 10.0 mi East 18.4 mph 28.8 mph N/A   Mostly Cloudy
2:40 PM 69.8 °F 28.4 °F 21% 30.19 in 10.0 mi East 29.9 mph - N/A   Mostly Cloudy
3:40 PM 69.8 °F 26.6 °F 20% 30.18 in 8.0 mi East 21.9 mph - N/A   Mostly Cloudy
4:40 PM 68 °F 31 °F 15% 29.86 in 6 mi ESE 8.9 mph - -   Overcast
4:40 PM 68.0 °F 26.6 °F 21% 29.98 in 10.0 mi East 19.6 mph - N/A   Mostly Cloudy
5:40 PM 64.4 °F 26.6 °F 24% 30.19 in 10.0 mi East 21.9 mph - N/A   Mostly Cloudy
6:40 PM 62.6 °F 26.6 °F 26% 30.19 in 10.0 mi East 20.7 mph - N/A   Mostly Cloudy
7:40 PM 57.2 °F 26.6 °F 31% 30.06 in 10.0 mi ENE 10.4 mph - N/A   Mostly Cloudy
7:43 PM 60 °F 31 °F 22% 29.89 in 1 mi East 4.5 mph - -   Overcast
8:40 PM 55.4 °F 24.8 °F 31% 30.24 in 10.0 mi East 3.5 mph - N/A   Mostly Cloudy
9:40 PM 53.6 °F 24.8 °F 33% 30.25 in 10.0 mi WSW 4.6 mph - N/A   Mostly Cloudy
10:32 PM 53 °F 29 °F 27% 29.94 in 1 mi Calm Calm - -   Clear
10:40 PM 53.6 °F 23.0 °F 30% 30.07 in 10.0 mi Calm Calm - N/A   Mostly Cloudy